User: anonymous   Login
Location: Albany
(35.0000°S, 118.0000°E)
Time: 12:58:20
(UTC-04:00)
Language:

Cosmos 1933 - Orbit

View from above orbital plane
View from above orbital plane
View from above satellite
View from above satellite

Ground track
Ground track

The orbit data is extracted from the following two-line orbital elements,

1 18958U 88020A   17083.86583534 +.00000231 +00000-0 +14955-4 0  9994
2 18958 082.5320 185.2056 0011070 201.6585 158.4175 15.03174494557697
Epoch (UTC): 24 March 2017 20:46:48
Eccentricity: 0.0011070
inclination: 82.5320°
perigee height: 549 km
apogee height: 565 km
right ascension of ascending node: 185.2056°
argument of perigee: 201.6585°
revolutions per day: 15.03174494
mean anomaly at epoch: 158.4175°
orbit number at epoch: 55769

The dashed part of the orbit path shows where the satellite is in the earth's shadow,  

DLR